Location: Barrow Cemetery
(37.9189°N, 89.5943°W)
Time: 14:04:53
(UTC+00:00)

Daily predictions for brighter satellites

Satellite Brightness Start Highest point End
(mag) Time Altitude Azimuth Time Altitude Azimuth Time Altitude Azimuth
Meteor PRIRODA 3.6 12:02:20 10° N 12:05:54 60° WNW 12:09:28 10° SSW
Cosmos 1092 Rocket 4.1 12:00:10 10° S 12:06:23 83° E 12:12:44 10° N
CZ-4B R/B 2.5 12:03:13 10° N 12:06:46 68° WNW 12:10:22 10° SSW
Cosmos 1805 Rocket 3.7 12:04:26 10° S 12:08:49 80° E 12:13:11 10° N
H-2A R/B 2.4 12:05:18 10° SSE 12:09:31 67° ENE 12:13:51 10° N
Cosmos 1538 Rocket 4.5 12:05:07 10° NNW 12:10:19 64° ENE 12:15:26 10° SSE
SMAP 3.5 12:06:37 10° NNE 12:11:15 69° ESE 12:15:53 10° S
SL-27 R/B 2.8 12:09:14 10° NNW 12:12:37 43° WSW 12:15:57 10° S
NOAA 11 4.4 12:08:47 10° N 12:14:01 48° WNW 12:19:16 10° SW
Cosmos 1340 Rocket 3.1 12:11:11 10° SSW 12:14:56 43° WNW 12:18:45 10° N
Cosmos 1515 3.7 12:11:49 10° N 12:15:38 84° E 12:19:25 10° S
CZ-2C R/B 3.1 12:13:50 10° N 12:18:39 54° WNW 12:23:42 10° SSW
SL-8 R/B 3.9 12:16:55 11° WNW 12:21:34 64° SW 12:26:16 10° SE
ATLAS 5 CENTAUR R/B 2.5 12:22:10 10° W 12:25:15 23° NW 12:28:35 10° N
H-2A R/B 3.3 12:20:34 10° NNE 12:25:17 45° E 12:30:01 10° S
Okean O Rocket 4.2 12:26:51 10° NE 12:30:30 25° E 12:34:08 10° SSE
Cosmos 1666 3.9 12:26:57 10° SSE 12:30:35 47° E 12:34:13 10° NNE
NOSS 2 (A) 3.9 12:28:49 10° NW 12:31:24 82° WSW 12:33:45 10° SSE
USA 32 4.1 12:28:23 10° NNW 12:33:33 61° W 12:38:41 10° S
Meteor 1-27 Rocket 4.2 12:28:36 10° NNW 12:33:53 40° W 12:39:14 10° SSW
CZ-4B R/B 1.9 12:30:55 10° SSE 12:34:11 62° ENE 12:37:27 10° N
NOAA 12 4.1 22:57:33 10° SSE 23:02:50 73° ENE 23:08:09 10° N
Cosmos 1697 Rocket 2.7 22:58:28 10° NNW 23:04:05 74° ENE 23:09:41 10° SSE
Cosmos 1092 Rocket 4.1 22:58:03 10° N 23:04:21 64° E 23:10:35 10° SSE
BREEZE-M R/B 4.2 23:03:02 10° WNW 23:06:37 51° SW 23:15:03 10° SE
Cosmos 1898 Rocket 3.6 23:04:05 10° NNW 23:09:21 89° WSW 23:14:32 10° SSE
Cosmos 1980 Rocket 2.6 23:04:06 10° N 23:09:26 41° ENE 23:14:41 10° SE
SMAP 3.1 23:07:49 10° SSE 23:12:20 56° ENE 23:16:54 10° N
GPS 2-04 Rocket1 3.5 23:09:34 10° W 23:13:34 52° S 23:17:35 10° ESE
Cosmos 1602 3.7 23:09:58 10° N 23:13:50 73° E 23:17:41 10° SSE
CORIOLIS 4.3 23:09:49 10° SSE 23:15:03 54° ENE 23:20:19 10° N
FengYun 1-2 T 4.2 23:10:40 10° SSE 23:16:15 79° ENE 23:21:48 10° N
Cosmos 1743 Rocket 4.1 23:12:38 10° NNW 23:16:55 63° W 23:21:11 10° S
Cosmos 2369 3.8 23:11:18 10° NNW 23:16:59 61° ENE 23:22:36 10° SE
ISS -2.6 23:14:26 10° NNW 23:17:22 27° NNE 23:20:18 10° E
CZ-4C R/B 3.4 23:12:59 10° NNW 23:19:58 42° NE 23:27:54 10° ESE
Meteor 2-21 4.4 23:14:29 10° N 23:20:30 63° E 23:26:28 10° SSE
Cosmos 2082 Rocket 2.4 23:16:40 10° SSW 23:22:22 81° WNW 23:28:03 10° NNE
Cosmos 1939 Rocket 2.9 23:19:29 10° SSE 23:23:35 85° ENE 23:27:40 10° N
SL-16 R/B 3.7 23:20:27 10° NNE 23:23:46 16° NE 23:27:05 10° E
Cosmos 2279 Rocket 4.1 23:18:54 10° SSE 23:24:54 53° E 23:30:54 10° NNE
Okean O Rocket 2.9 23:22:04 10° ESE 23:25:11 19° ENE 23:28:20 10° NNE
Cosmos 1328 Rocket 4.2 23:21:36 10° SSE 23:25:37 35° E 23:29:39 10° NNE
Cosmos 1627 Rocket 4.4 23:21:18 10° N 23:27:29 82° E 23:33:35 10° S
Cosmos 1666 Rocket 4.0 23:24:06 10° N 23:28:16 40° ENE 23:32:24 10° SSE
ARGOS 4.0 23:26:34 10° ESE 23:31:02 27° ENE 23:35:31 10° N
Cosmos 44 Rocket 4.4 23:27:29 10° N 23:31:19 22° NE 23:34:46 11° E
Cosmos 1500 3.0 23:28:41 10° N 23:32:26 78° E 23:36:08 10° S
Cosmos 2208 Rocket 4.2 23:27:25 10° S 23:32:40 58° ESE 23:38:01 10° NNE
Cosmos 841 Rocket 4.2 23:29:10 10° SW 23:34:12 53° WNW 23:39:15 10° N
CZ-4B DEB 4.2 23:30:44 10° SSE 23:36:12 72° ENE 23:41:41 10° N
Cosmos 1782 3.6 23:32:19 10° SSW 23:36:13 55° W 23:40:09 10° N
CZ-2D R/B 3.4 23:32:55 10° SSE 23:36:37 50° ENE 23:40:20 10° N
Meteor 1-14 Rocket 4.4 23:31:10 10° N 23:36:57 56° ENE 23:42:47 10° SSE
CZ-2C R/B 4.3 23:33:02 10° S 23:37:40 41° W 23:42:11 10° NNW
MOS 1-B 4.4 23:32:16 10° SE 23:37:49 53° ENE 23:43:26 10° N
Cosmos 2278 3.8 23:34:33 10° NNW 23:40:08 52° ENE 23:45:38 10° SE
ATLAS CENTAUR R/B 4.4 23:31:39 10° WSW 23:40:55 32° NW 23:45:16 10° NNE
H-2A R/B 2.1 23:35:59 10° SSE 23:41:02 55° ENE 23:45:57 10° N
Meteor 2-14 Rocket 4.5 23:35:21 10° N 23:41:27 85° W 23:47:30 10° S
Cosmos 1634 Rocket 4.5 23:38:39 10° SSW 23:44:55 66° W 23:51:14 10° N
SKYMED 2 3.8 23:41:07 10° NNE 23:45:19 47° E 23:49:30 10° S
Cosmos 1937 Rocket 4.3 23:40:26 10° NNW 23:45:40 58° WSW 23:50:49 10° S
USA 267 4.2 23:41:55 10° NE 23:47:56 41° NNW 23:53:56 10° W
Sich 1 3.7 23:44:25 10° NNW 23:48:38 58° W 23:52:53 10° S
Cosmos 372 Rocket 4.0 23:44:23 10° NNW 23:49:39 86° WSW 23:54:53 10° SSE
Cosmos 1900 4.5 23:45:38 10° SW 23:50:29 74° WNW 23:55:10 11° NNE
Cosmos 2026 Rocket 4.4 23:45:24 10° NNW 23:51:27 65° W 23:57:24 10° S
Cosmos 1125 Rocket 4.4 23:47:56 10° N 23:52:22 27° ENE 23:56:48 10° ESE
deb Chang Zheng 4 3.8 23:51:21 10° SE 23:55:26 45° ENE 23:59:33 10° N
APEX 3.2 23:52:22 10° S 23:56:26 54° ESE 23:58:03 28° NE
